Flag for Germany Weather past 2 weeks in Salzwedel, Saxony-Anhalt, Germany

Now
36 °F

Fog.


Feels Like: 36 °F
Forecast: 43 / 59 °F
Wind: 1 mph from Southeast

Location: Fassberg

Current Time: May 25, 2015 at 5:41:59 AM

Latest Report: May 25, 2015 at 4:20 AM


Visibility: N/A

Pressure: 29.95 "Hg

Humidity: 93%

Dew point: 34 °F

Location of SalzwedelLocation

Historic Weather in Salzwedel — Graph

°F

Salzwedel temperature yesterday

Maximum temperature yesterday: 68 °F (at 4:20 PM)
Minimum temperature yesterday: 34 °F (at 5:20 AM)
Average temperature yesterday: 53 °F

Past Weeks' High & Low Weather Summary

 TemperatureHumidityPressure
High77 °F (May 12, 2:20 PM)100% (May 15, 5:20 AM)30.36 "Hg (May 15, 5:20 AM)
Low32 °F (May 16, 5:20 AM)33% (May 11, 4:20 PM)29.59 "Hg (May 18, 9:20 PM)
Average53 °F68%30.05 "Hg
* Reported May 10 4:20 AM — May 25 4:20 AM, Salzwedel, Weather by CustomWeather, © 2015

Note: Actual official high and low records may vary slightly from our data, if they occured in-between our weather recording intervals... More about our weather records

Advertising

Salzwedel weather history for previous 24 hours

 ConditionsComfort  
Time TempWeatherWind HumidityBarometerVisibility
4:20 AM
Mon, May 25
36 °FFog.1 mph93%29.95 "HgN/A
3:20 AM41 °FPassing clouds.1 mph93%29.95 "HgN/A
2:20 AM41 °FPassing clouds.1 mph93%29.98 "HgN/A
1:20 AM45 °FPassing clouds.1 mph87%29.98 "HgN/A
12:20 AM46 °FPassing clouds.1 mph87%30.01 "HgN/A
11:20 PM
Sun, May 24
50 °FPassing clouds.1 mph76%30.01 "HgN/A
10:20 PM52 °FScattered clouds.1 mph72%30.01 "HgN/A
9:20 PM61 °FScattered clouds.6 mph52%30.01 "HgN/A
8:20 PM64 °FPassing clouds.9 mph46%30.01 "HgN/A
7:20 PM66 °FPassing clouds.7 mph43%30.01 "HgN/A
6:20 PM66 °FScattered clouds.10 mph40%30.04 "HgN/A
5:20 PM66 °FScattered clouds.7 mph43%30.04 "HgN/A
4:20 PM68 °FScattered clouds.9 mph40%30.07 "HgN/A
3:20 PM66 °FScattered clouds.9 mph40%30.07 "HgN/A
2:20 PM64 °FPassing clouds.6 mph46%30.09 "HgN/A
1:20 PM64 °FPassing clouds.7 mph43%30.09 "HgN/A
12:20 PM63 °FPassing clouds.5 mph49%30.12 "HgN/A
11:20 AM61 °FPassing clouds.5 mph55%30.12 "HgN/A
10:20 AM57 °FPassing clouds.2 mph63%30.12 "HgN/A
9:20 AM54 °FPassing clouds.5 mph67%30.15 "HgN/A
8:20 AM50 °FPassing clouds.3 mph71%30.15 "HgN/A
7:20 AM41 °FPassing clouds.No wind93%30.15 "HgN/A
6:20 AM34 °FFog.1 mph100%30.15 "HgN/A
5:20 AM34 °FPassing clouds.1 mph93%30.15 "Hg2 mi
Weather by CustomWeather, © 2015

See weather overviewHow to use our weather pages